Date_and_time,latitude,longitude,wind_speed,RelWindDirFrom,WindDirFrom,air_pressure,air_temperature,relative_humidity,Temp,platform_speed_wrt_ground,air_pressure_at_mean_sea_level,platform_orientation
2019-12-15 00:00,50.6304466666667,-96.9807716666667,3.4,4.1,221,991.73,-23.2,73,0.41,0.0,1022.23,360.0
2019-12-15 00:00,50.6304466666667,-96.9807716666667,3.0,3.0,219,991.67,-23.2,72,0.41,0.0,1022.17,360.0
2019-12-15 00:10,50.6304466666667,-96.9807716666667,2.8,3.5,206,991.64,-23.3,72,0.41,0.0,1022.17,360.0
2019-12-15 00:20,50.63045,-96.98077,1.8,2.7,192,991.53,-23.6,74,0.41,0.0,1022.09,360.0
2019-12-15 00:30,50.63045,-96.98077,1.1,1.8,196,991.43,-23.6,74,0.41,0.0,1021.99,360.0
2019-12-15 00:40,50.6304566666667,-96.980745,1.9,2.7,199,991.45,-23.7,74,0.41,0.0,1022.03,360.0
2019-12-15 00:50,50.63046,-96.9807983333333,2.9,3.3,207,991.46,-24.4,75,0.41,0.0,1022.09,360.0
2019-12-15 01:00,50.6304533333333,-96.98079,2.4,3.4,212,991.35,-24.7,75,0.41,0.0,1022.03,310.6
2019-12-15 01:10,50.630445,-96.9807666666667,3.1,4.2,222,991.26,-24.7,75,0.41,0.0,1021.94,310.6
2019-12-15 01:20,50.6304466666667,-96.9807666666667,3.7,4.6,218,991.25,-24.8,75,0.42,0.0,1021.96,310.6
2019-12-15 01:30,50.6304483333333,-96.9807683333333,3.8,4.5,219,991.14,-25.0,75,0.42,0.0,1021.86,310.6
2019-12-15 01:40,50.63045,-96.98077,3.3,4.6,229,991.06,-25.0,75,0.42,0.0,1021.76,310.6
2019-12-15 01:50,50.6304516666667,-96.98077,4.3,5.0,227,991.01,-25.0,75,0.42,0.0,1021.70,310.6
2019-12-15 02:00,50.63045,-96.98078,4.7,5.7,230,990.92,-25.0,75,0.43,0.0,1021.62,305.3
2019-12-15 02:10,50.63045,-96.98078,5.1,6.2,235,990.85,-25.0,74,0.43,0.0,1021.57,305.3
2019-12-15 02:20,50.6304483333333,-96.980735,4.8,5.8,230,990.72,-25.2,74,0.42,0.0,1021.44,305.3
2019-12-15 02:30,50.6304533333333,-96.9807683333333,5.1,5.8,233,990.63,-25.3,74,0.42,0.0,1021.36,305.3
2019-12-15 02:40,50.6304483333333,-96.9807633333333,4.9,5.8,230,990.54,-25.4,74,0.42,0.0,1021.32,305.3
2019-12-15 02:50,50.63045,-96.980765,4.6,5.6,226,990.48,-25.6,74,0.42,0.0,1021.29,305.3
2019-12-15 03:00,50.6304483333333,-96.9807633333333,4.2,5.1,217,990.50,-25.7,74,0.42,0.0,1021.32,90.0
2019-12-15 03:10,50.6304483333333,-96.9807666666667,3.7,4.7,212,990.54,-25.6,74,0.42,0.0,1021.37,90.0
2019-12-15 03:20,50.6304516666667,-96.9807883333333,3.2,4.4,209,990.46,-25.5,74,0.42,0.0,1021.29,90.0
2019-12-15 03:30,50.630445,-96.9807716666667,3.6,4.4,209,990.35,-25.5,74,0.43,0.0,1021.16,90.0
2019-12-15 03:40,50.6304483333333,-96.980745,3.0,3.7,205,990.22,-25.6,74,0.43,0.0,1021.04,90.0
2019-12-15 03:50,50.6304266666667,-96.9807433333333,2.8,3.7,193,990.23,-25.6,74,0.43,0.0,1021.06,90.0
2019-12-15 04:00,50.6304616666667,-96.9807583333333,3.5,4.6,198,990.29,-25.5,74,0.43,0.0,1021.11,61.7
2019-12-15 04:10,50.6304466666667,-96.9807633333333,4.4,5.7,197,990.35,-25.7,74,0.43,0.0,1021.19,61.7
2019-12-15 04:20,50.630445,-96.9807683333333,4.8,5.9,190,990.29,-26.0,74,0.44,0.0,1021.16,61.7
2019-12-15 04:30,50.6304416666667,-96.9807683333333,5.2,6.4,193,990.27,-26.2,74,0.45,0.0,1021.15,61.7
2019-12-15 04:40,50.6304433333333,-96.9807916666667,5.4,6.5,194,990.16,-26.0,75,0.45,0.0,1021.04,61.7
2019-12-15 04:50,50.6304516666667,-96.980785,6.0,6.9,194,990.05,-26.0,74,0.44,0.0,1020.93,61.7
2019-12-15 05:00,50.6304533333333,-96.9807733333333,5.9,6.7,195,989.89,-26.1,74,0.44,0.0,1020.78,90.0
2019-12-15 05:10,50.630455,-96.98077,6.6,8.0,198,989.79,-26.2,74,0.43,0.0,1020.67,90.0
2019-12-15 05:20,50.630455,-96.9807716666667,6.9,8.0,195,989.68,-26.3,74,0.43,0.0,1020.57,90.0
2019-12-15 05:30,50.6304566666667,-96.9807716666667,7.0,8.2,191,989.53,-26.4,74,0.43,0.0,1020.41,90.0
2019-12-15 05:40,50.6304566666667,-96.98077,7.3,9.1,191,989.40,-26.6,74,0.43,0.0,1020.30,90.0
2019-12-15 05:50,50.6304566666667,-96.98077,7.0,8.1,189,989.30,-26.6,74,0.43,0.0,1020.18,90.0
2019-12-15 06:00,50.6304566666667,-96.98077,6.2,8.0,193,989.24,-26.5,74,0.42,0.0,1020.14,38.0
2019-12-15 06:10,50.6304466666667,-96.9807466666667,6.4,8.0,189,989.07,-26.4,74,0.42,0.0,1019.97,38.0
2019-12-15 06:20,50.630445,-96.9807466666667,7.0,8.6,189,988.95,-26.5,73,0.41,0.0,1019.86,38.0
2019-12-15 06:30,50.6304483333333,-96.980755,6.8,8.6,192,988.82,-26.6,73,0.41,0.0,1019.72,38.0
2019-12-15 06:40,50.6304483333333,-96.9807533333333,7.5,9.7,190,988.72,-26.6,73,0.41,0.0,1019.62,38.0
2019-12-15 06:50,50.63045,-96.9807583333333,8.7,10.8,189,988.55,-26.6,73,0.40,0.0,1019.46,38.0
2019-12-15 07:00,50.6304516666667,-96.98076,8.7,10.4,190,988.45,-26.7,73,0.40,0.0,1019.35,360.0
2019-12-15 07:10,50.6304516666667,-96.98076,8.5,10.2,188,988.37,-26.6,73,0.39,0.0,1019.28,360.0
2019-12-15 07:20,50.6304516666667,-96.98076,7.7,9.4,191,988.33,-26.5,73,0.39,0.0,1019.24,360.0
2019-12-15 07:30,50.6304516666667,-96.9807616666667,7.8,10.0,193,988.29,-26.4,73,0.38,0.0,1019.21,360.0
2019-12-15 07:40,50.6304533333333,-96.9807633333333,7.5,9.2,192,988.16,-26.4,73,0.38,0.0,1019.07,360.0
2019-12-15 07:50,50.630455,-96.980765,7.4,9.1,189,987.98,-26.3,73,0.38,0.0,1018.87,360.0
2019-12-15 08:00,50.6304733333333,-96.9807666666667,8.1,9.7,188,987.86,-26.2,73,0.38,0.0,1018.73,360.0
2019-12-15 08:10,50.6304666666667,-96.9807683333333,7.8,10.1,190,987.71,-26.1,73,0.37,0.0,1018.58,360.0
2019-12-15 08:20,50.6304666666667,-96.9807683333333,7.7,9.5,194,987.68,-26.0,73,0.37,0.0,1018.55,360.0
2019-12-15 08:30,50.630465,-96.9807683333333,8.3,10.0,193,987.58,-26.1,73,0.36,0.0,1018.45,360.0
2019-12-15 08:40,50.630465,-96.9807766666667,9.2,11.7,194,987.45,-26.2,73,0.36,0.0,1018.33,360.0
2019-12-15 08:50,50.630485,-96.9808083333333,8.8,11.1,192,987.33,-26.2,73,0.35,0.0,1018.21,360.0
2019-12-15 09:00,50.6304716666667,-96.980785,8.2,9.7,190,987.23,-26.1,73,0.35,0.0,1018.09,360.0
2019-12-15 09:10,50.63047,-96.98078,8.4,10.7,188,986.99,-26.0,73,0.36,0.0,1017.84,360.0
2019-12-15 09:20,50.6304683333333,-96.9807766666667,8.8,10.7,189,986.84,-25.9,73,0.35,0.0,1017.66,360.0
2019-12-15 09:30,50.6304516666667,-96.9807633333333,9.5,11.5,188,986.72,-25.8,74,0.35,0.0,1017.54,360.0
2019-12-15 09:40,50.6304683333333,-96.9807833333333,10.0,13.2,190,986.57,-25.7,74,0.34,0.0,1017.37,360.0
2019-12-15 09:50,50.630465,-96.980775,8.5,11.7,196,986.57,-25.7,73,0.33,0.0,1017.36,360.0
2019-12-15 10:00,50.6304616666667,-96.9807716666667,7.2,9.1,196,986.57,-25.8,73,0.33,0.0,1017.37,323.4
2019-12-15 10:10,50.6304516666667,-96.9807616666667,6.6,8.2,196,986.57,-25.9,73,0.34,0.0,1017.36,323.4
2019-12-15 10:20,50.6304566666667,-96.9807566666667,6.7,9.1,193,986.46,-25.9,73,0.33,0.0,1017.25,323.4
2019-12-15 10:30,50.6304933333333,-96.9807983333333,6.9,8.6,192,986.43,-26.0,73,0.33,0.0,1017.23,323.4
2019-12-15 10:40,50.6304583333333,-96.980755,7.1,9.4,189,986.38,-26.1,73,0.33,0.0,1017.18,323.4
2019-12-15 10:50,50.6304583333333,-96.9807716666667,7.1,9.1,189,986.40,-26.1,73,0.32,0.0,1017.20,323.4
2019-12-15 11:00,50.63046,-96.9807716666667,8.0,9.8,185,986.37,-26.0,73,0.32,0.0,1017.16,203.5
2019-12-15 11:10,50.630465,-96.980765,7.3,9.1,188,986.40,-25.9,73,0.31,0.0,1017.18,203.5
2019-12-15 11:20,50.6304383333333,-96.9807933333333,7.7,9.5,187,986.28,-25.9,73,0.31,0.0,1017.05,203.5
2019-12-15 11:30,50.6304516666667,-96.9807666666667,6.7,8.7,189,986.23,-25.9,73,0.30,0.0,1016.99,203.5
2019-12-15 11:40,50.6304566666667,-96.9807683333333,5.5,7.0,191,986.20,-25.9,73,0.30,0.0,1016.96,203.5
2019-12-15 11:50,50.6304566666667,-96.9807666666667,5.9,7.2,187,986.04,-25.9,73,0.30,0.0,1016.80,203.5
2019-12-15 12:00,50.630455,-96.980765,5.4,6.4,177,985.95,-25.8,73,0.30,0.0,1016.72,360.0
2019-12-15 12:10,50.630455,-96.980765,6.5,8.5,169,985.80,-25.6,74,0.30,0.0,1016.55,360.0
2019-12-15 12:20,50.630455,-96.980765,9.6,11.3,169,985.60,-25.2,74,0.30,0.0,1016.32,360.0
2019-12-15 12:30,50.630455,-96.9807666666667,9.3,12.1,171,985.53,-25.1,74,0.29,0.0,1016.24,360.0
2019-12-15 12:40,50.630455,-96.9807666666667,10.7,13.3,170,985.35,-24.9,74,0.29,0.0,1016.05,360.0
2019-12-15 12:50,50.630475,-96.9807616666667,12.1,14.1,170,985.15,-24.8,75,0.30,0.0,1015.83,360.0
2019-12-15 13:00,50.63046,-96.980755,11.2,13.3,172,985.01,-24.8,75,0.29,0.0,1015.67,125.3
2019-12-15 13:10,50.63048,-96.9807716666667,10.4,13.2,176,985.04,-24.7,75,0.30,0.0,1015.70,125.3
2019-12-15 13:20,50.630465,-96.9807683333333,10.9,12.8,173,984.77,-24.5,75,0.30,0.0,1015.41,125.3
2019-12-15 13:30,50.6304616666667,-96.9807633333333,12.4,14.1,172,984.61,-24.3,75,0.30,0.0,1015.23,125.3
2019-12-15 13:40,50.6304616666667,-96.980765,11.5,14.0,176,984.57,-24.1,75,0.30,0.0,1015.18,125.3
2019-12-15 13:50,50.63046,-96.9807633333333,11.4,13.5,179,984.54,-23.8,75,0.29,0.0,1015.13,125.3
2019-12-15 14:00,50.6304583333333,-96.9807666666667,10.7,13.1,179,984.40,-23.7,75,0.29,0.0,1014.96,90.0
2019-12-15 14:10,50.6304583333333,-96.980765,9.5,11.3,179,984.31,-23.6,75,0.29,0.0,1014.83,90.0
2019-12-15 14:20,50.6304583333333,-96.9807666666667,9.4,11.8,181,984.24,-23.4,75,0.29,0.0,1014.74,90.0
2019-12-15 14:30,50.6304583333333,-96.9807666666667,9.8,12.2,181,984.05,-23.2,75,0.29,0.0,1014.52,90.0
2019-12-15 14:40,50.6304816666667,-96.9807783333333,10.7,13.5,183,983.92,-22.9,75,0.29,0.0,1014.37,90.0
2019-12-15 14:50,50.6304616666667,-96.9807683333333,10.7,13.2,183,983.85,-22.8,75,0.30,0.0,1014.28,90.0
2019-12-15 15:00,50.630455,-96.9807616666667,11.0,13.1,179,983.63,-22.6,75,0.30,0.0,1014.04,90.0
2019-12-15 15:10,50.630455,-96.9807633333333,11.8,14.1,177,983.44,-22.1,75,0.29,0.0,1013.80,90.0
2019-12-15 15:20,50.630455,-96.9807633333333,13.7,16.1,174,983.27,-21.5,74,0.29,0.0,1013.58,90.0
2019-12-15 15:30,50.6304583333333,-96.98077,13.2,16.1,176,983.33,-21.0,74,0.29,0.0,1013.59,90.0
2019-12-15 15:40,50.630455,-96.98077,12.5,15.5,177,983.36,-20.9,74,0.29,0.0,1013.61,90.0
2019-12-15 15:50,50.6304583333333,-96.9807683333333,11.6,15.6,178,983.42,-20.3,73,0.29,0.0,1013.62,90.0
2019-12-15 16:00,50.6304566666667,-96.98077,11.7,15.4,183,983.40,-19.7,73,0.28,0.0,1013.56,192.6
2019-12-15 16:10,50.6304533333333,-96.980795,11.7,17.8,191,983.57,-19.3,72,0.29,0.0,1013.69,192.6
2019-12-15 16:20,50.6304533333333,-96.98078,12.9,16.9,193,983.58,-19.1,72,0.29,0.0,1013.68,192.6
2019-12-15 16:30,50.63046,-96.9807783333333,13.5,20.5,190,983.42,-19.1,72,0.29,0.0,1013.50,192.6
2019-12-15 16:40,50.6304616666667,-96.98078,12.9,15.7,190,983.25,-18.8,72,0.29,0.0,1013.30,192.6
2019-12-15 16:50,50.6304566666667,-96.9807666666667,14.8,19.0,186,982.99,-18.6,72,0.30,0.0,1013.01,192.6
2019-12-15 17:00,50.630455,-96.9807666666667,16.5,21.4,184,982.71,-18.3,72,0.30,0.0,1012.67,360.0
2019-12-15 17:10,50.6304566666667,-96.9807633333333,17.2,23.1,187,982.50,-18.4,74,0.29,0.0,1012.43,360.0
2019-12-15 17:20,50.630455,-96.980765,14.8,18.5,190,982.56,-18.1,75,0.29,0.0,1012.44,360.0
2019-12-15 17:30,50.6304533333333,-96.980765,14.7,19.5,191,982.40,-17.9,75,0.30,0.0,1012.26,360.0
2019-12-15 17:40,50.6304583333333,-96.9807783333333,16.0,21.8,189,982.11,-17.7,75,0.30,0.0,1011.91,360.0
2019-12-15 17:50,50.630455,-96.98077,16.1,21.8,188,981.92,-17.5,75,0.30,0.0,1011.67,360.0
2019-12-15 18:00,50.6304566666667,-96.9807683333333,13.5,17.6,190,981.85,-17.2,76,0.31,0.0,1011.55,270.0
2019-12-15 18:10,50.6304516666667,-96.9807866666667,15.8,21.7,192,981.64,-17.0,76,0.31,0.0,1011.32,270.0
2019-12-15 18:20,50.6304533333333,-96.9807766666667,15.7,19.5,191,981.51,-16.8,76,0.31,0.0,1011.17,270.0
2019-12-15 18:30,50.6304483333333,-96.9807716666667,13.7,19.8,193,981.59,-16.5,76,0.31,0.0,1011.21,270.0
2019-12-15 18:40,50.6304483333333,-96.98077,13.7,18.7,195,981.62,-16.3,76,0.31,0.0,1011.23,270.0
2019-12-15 18:50,50.6304483333333,-96.9807683333333,14.4,19.3,196,981.59,-16.2,76,0.32,0.0,1011.17,270.0
2019-12-15 19:00,50.6304483333333,-96.9807666666667,14.2,19.2,192,981.59,-16.1,76,0.32,0.0,1011.16,142.0
2019-12-15 19:10,50.63045,-96.9807666666667,11.2,16.7,193,981.67,-15.9,77,0.33,0.0,1011.22,142.0
2019-12-15 19:20,50.6304516666667,-96.9807683333333,11.6,15.3,190,981.61,-15.8,78,0.34,0.0,1011.14,142.0
2019-12-15 19:30,50.63045,-96.9807683333333,11.4,14.2,190,981.52,-15.7,78,0.35,0.0,1011.04,142.0
2019-12-15 19:40,50.63045,-96.98077,10.2,14.0,196,981.51,-15.6,79,0.35,0.0,1011.00,142.0
2019-12-15 19:50,50.63045,-96.98077,10.8,13.5,195,981.50,-15.4,78,0.35,0.0,1010.97,142.0
2019-12-15 20:00,50.63045,-96.98077,8.6,11.7,194,981.47,-15.3,79,0.36,0.0,1010.91,90.0
2019-12-15 20:10,50.6304533333333,-96.98076,9.5,13.6,199,981.57,-15.2,79,0.36,0.0,1011.00,90.0
2019-12-15 20:20,50.6304533333333,-96.9807666666667,9.7,13.7,199,981.55,-15.2,79,0.36,0.0,1010.97,90.0
2019-12-15 20:30,50.6304466666667,-96.9807633333333,9.7,13.6,196,981.48,-15.1,80,0.37,0.0,1010.88,90.0
2019-12-15 20:40,50.6304483333333,-96.9807633333333,10.6,13.7,193,981.39,-15.1,80,0.37,0.0,1010.77,90.0
2019-12-15 20:50,50.6304466666667,-96.9807666666667,11.2,14.8,194,981.29,-15.1,81,0.37,0.0,1010.66,90.0
2019-12-15 21:00,50.6304466666667,-96.9807683333333,8.2,11.6,203,981.57,-15.0,81,0.37,0.0,1010.94,142.0
2019-12-15 21:10,50.6304466666667,-96.9807683333333,8.2,11.2,203,981.72,-14.9,81,0.38,0.0,1011.08,142.0
2019-12-15 21:20,50.6304466666667,-96.98077,9.7,13.4,205,981.78,-14.8,81,0.38,0.0,1011.13,142.0
2019-12-15 21:30,50.6304616666667,-96.9807616666667,7.6,10.1,203,981.87,-14.7,81,0.38,0.0,1011.21,142.0
2019-12-15 21:40,50.6304483333333,-96.980775,7.7,10.2,204,981.94,-14.7,81,0.38,0.0,1011.27,142.0
2019-12-15 21:50,50.6304466666667,-96.9807766666667,7.3,9.9,207,981.98,-14.6,82,0.38,0.0,1011.30,142.0
2019-12-15 22:00,50.6304483333333,-96.9807733333333,7.3,10.1,211,982.06,-14.6,82,0.40,0.0,1011.38,270.0
2019-12-15 22:10,50.6304466666667,-96.9807733333333,5.8,8.0,217,982.26,-14.5,82,0.41,0.0,1011.58,270.0
2019-12-15 22:20,50.6304466666667,-96.9807733333333,5.6,7.4,217,982.41,-14.4,82,0.41,0.0,1011.73,270.0
2019-12-15 22:30,50.6304466666667,-96.9807733333333,4.9,6.7,219,982.53,-14.4,83,0.41,0.0,1011.85,270.0
2019-12-15 22:40,50.6304466666667,-96.9807733333333,4.5,6.0,222,982.57,-14.4,83,0.41,0.0,1011.88,270.0
2019-12-15 22:50,50.6304466666667,-96.9807733333333,4.1,5.4,222,982.67,-14.3,83,0.40,0.0,1011.98,270.0
2019-12-15 23:00,50.6304466666667,-96.98077,4.3,6.0,219,982.78,-14.2,83,0.40,0.0,1012.08,360.0
2019-12-15 23:10,50.6304466666667,-96.98077,3.8,5.2,218,982.91,-14.1,83,0.40,0.0,1012.21,360.0
2019-12-15 23:20,50.63043,-96.9807533333333,3.5,5.4,230,983.04,-14.0,83,0.40,0.0,1012.32,360.0
2019-12-15 23:30,50.6304483333333,-96.980765,2.5,4.0,244,983.16,-14.0,84,0.40,0.0,1012.45,360.0
2019-12-15 23:40,50.63045,-96.9807683333333,3.2,4.1,239,983.24,-14.2,84,0.40,0.0,1012.54,360.0
